NOAA 7 DEB

Satellite information

Favourite Embed

Satellite Type and Status

DEBRISIN ORBIT

Key statistics

Satellite NOAA 7 DEB at a glance.

Uptime

16085

Days in orbit

Revolutions

≈ 14.6

Per day

Orbit

SSO

Sun Synchronous Orbit

Inclination

98.9

Latest

Satellite identification and parameters

Extended collection of information and parameters for NOAA 7 DEB.

Object identification

Identified? True

Debris? True

Object name: NOAA 7 DEB

International designator: 1981-059B

Object number (NORAD): 12559

Object ID (CCSDS): 12559

Country: UNITED STATES OF AMERICA (US)

Current information (Y/N): Y

RCS size: SMALL

Orbital parameters

Period: 98.414 minutes

Inclination: 98.9297 deg

SMA: 7060.961 km

Apoapsis: 684.504 km

Periapsis: 681.149 km

RAAN: 292.033 deg

Eccentricy: 0.0002376

Argument of periapsis: 6.5758 deg

Mean anomaly: 57.2508 deg

Mean motion: 14.63211201 rev/day

Mean motion (dot): 0.00002848 rev/day2

B* drag term: 0.00056364 1/REarth

Two-line elements (TLE)

Creation date: July 6, 2025, 6:05 p.m.

Reference frame: TEME

Reference center: EARTH

Epoch: July 6, 2025, 12:49 p.m. UTC

TLE line 0: 0 NOAA 7 DEB

TLE line 1: 1 12559U 81059B 25187.53412131 .00002848 00000-0 56364-3 0 9997

TLE line 2: 2 12559 98.9297 292.0330 0002376 6.5758 57.2508 14.63211201307138

Live tracking on map

Real-time ground track for satellite NOAA 7 DEB.

In-orbit conjunctions

A list of the most updated potential collisions computed for object NOAA 7 DEB.

Target Orbit TCA Probability of collision Miss distance Type
CZ-6A DEB LEO 2025-07-07 22:54:10 0.0002850492 162.0 (m) DEBRIS
CZ-6A DEB LEO 2024-12-22 11:59:48 0.0003603818 66.0 (m) DEBRIS

Associated space launch

Third generation LEO meteorological satellite

NOAA 7 DEB was lifted into orbit during the mission ‘Atlas F | NOAA 7’, on board a Atlas F space rocket.

The launch took place on June 23, 1981, 10:52 a.m. from Space Launch Complex 3W.

For more information about the launch, click the button.

Launch to space Atlas F | NOAA 7
Atlas F | NOAA 7

Agency: N/A

Status: Launch Successful

Launch date: June 23, 1981, 10:52 a.m. UTC

Rocket: Atlas F

Launch pad: Space Launch Complex 3W

Location: Vandenberg SFB, CA, USA

...

Latest news about this satellite

There are no fresh news available about this satellite. Check back as we update our databases every day.


Newsletter sign-up

Weekly statistics, charts and insights to help you stay on top of the space industry.